Regional Weather Roundup
Issued by NWS

Home | Current Version | Previous Version | Text Only | Print | Product List | Glossary On
Versions: 1 2 3 4 5 6 7 8 9 10 11 12 13 14 15 16 17 18 19 20 21 22 23 24 25 26 27 28 29 30 31 32 33 34 35 36 37 38 39 40 41 42 43 44 45 46 47 48 49 50
000
ASCA42 TJSJ 280310
RWRPR
PUERTO RICO/U.S. VIRGIN ISLANDS HOURLY WEATHER ROUNDUP
NATIONAL WEATHER SERVICE SAN JUAN PR
1100 PM AST THU AUG 27 2015

PRZ001-004-280400-
PUERTO RICO

CITY           SKY/WX    TMP DP  RH WIND       PRES   REMARKS
SAN JUAN LMM   MOCLDY    81  73  78 E20G29    29.91R
PONCE          MOCLDY    84  75  74 E12       29.83  HX  92
$$

PRZ006-007-280400-
U.S. VIRGIN ISLANDS

CITY           SKY/WX    TMP DP  RH WIND       PRES   REMARKS
CHARLOTTE AMA  CLOUDY    82  73  74 SE33G44   29.93R
CHRISTIANSTED  CLOUDY    79  73  83 SE28G44   29.96R
$$

HOURLY WEATHER ROUNDUP FOR THE NEWS MEDIA

CITY           SKY/WX    TMP DP  RH WIND       PRES   REMARKS
ORLANDO        PTCLDY    76  74  93 SE3       30.00R
NEW YORK       PTCLDY    72  51  47 N8        30.12R
NEWARK         PTCLDY    70  54  56 NW7       30.11R
CHICAGO        MOCLDY    65  56  72 E3        30.14R
HARTFORD       CLEAR     65  58  78 NW5       30.05S
BOSTON         PTCLDY    71  54  54 NW10      30.06R
DALLAS         PTCLDY    83  58  42 SE10      30.00R
PHILADELPHIA   CLEAR     71  54  54 NW7       30.14R
LOS ANGELES    PTCLDY    75  69  81 SW9       29.88R
WASHINGTON DC  PTCLDY    69  56  62 CALM      30.16R


USA.gov is the U.S. government's official web portal to all federal, state and local government web resources and services.